TimePDT,TemperatureF,Dew PointF,Humidity,Sea Level PressureIn,VisibilityMPH,Wind Direction,Wind SpeedMPH,Gust SpeedMPH,PrecipitationIn,Events,Conditions,WindDirDegrees,DateUTC
12:56 AM,70.0,32.0,25,29.85,10.0,SSW,3.5,-,N/A,,Clear,210,2013-06-17 07:56:00
1:56 AM,66.9,30.0,25,29.84,10.0,SW,4.6,-,N/A,,Clear,220,2013-06-17 08:56:00
2:56 AM,64.9,28.9,26,29.84,10.0,Calm,Calm,-,N/A,,Clear,0,2013-06-17 09:56:00
3:56 AM,60.1,27.0,28,29.86,10.0,WSW,3.5,-,N/A,,Clear,250,2013-06-17 10:56:00
4:56 AM,62.1,30.0,30,29.86,10.0,SW,5.8,-,N/A,,Clear,230,2013-06-17 11:56:00
5:56 AM,63.0,30.9,30,29.87,10.0,Calm,Calm,-,N/A,,Clear,0,2013-06-17 12:56:00
6:56 AM,66.0,30.0,26,29.88,10.0,Calm,Calm,-,N/A,,Clear,0,2013-06-17 13:56:00
7:56 AM,73.9,33.1,22,29.89,10.0,Calm,Calm,-,N/A,,Clear,0,2013-06-17 14:56:00
8:56 AM,80.1,34.0,19,29.90,10.0,ENE,3.5,-,N/A,,Clear,70,2013-06-17 15:56:00
9:56 AM,84.0,34.0,17,29.89,10.0,ENE,4.6,-,N/A,,Clear,70,2013-06-17 16:56:00
10:56 AM,90.0,30.0,12,29.88,10.0,ESE,3.5,-,N/A,,Clear,120,2013-06-17 17:56:00
11:56 AM,93.0,27.0,9,29.87,10.0,Calm,Calm,-,N/A,,Clear,0,2013-06-17 18:56:00
12:56 PM,95.0,18.0,6,29.85,10.0,East,5.8,-,N/A,,Clear,80,2013-06-17 19:56:00
1:56 PM,97.0,19.0,6,29.82,10.0,ESE,9.2,-,N/A,,Clear,110,2013-06-17 20:56:00
2:56 PM,99.0,19.9,6,29.79,10.0,Variable,5.8,-,N/A,,Clear,0,2013-06-17 21:56:00
3:56 PM,99.0,28.0,8,29.78,10.0,Variable,3.5,17.3,N/A,,Clear,0,2013-06-17 22:56:00
4:56 PM,99.0,30.0,9,29.74,10.0,South,18.4,21.9,N/A,,Clear,180,2013-06-17 23:56:00
5:16 PM,98.6,28.4,8,29.80,10.0,WSW,16.1,21.9,N/A,,Clear,250,2013-06-18 00:16:00
5:56 PM,97.0,28.9,9,29.75,10.0,WSW,13.8,20.7,N/A,,Clear,250,2013-06-18 00:56:00
6:56 PM,93.0,33.1,12,29.74,10.0,West,10.4,21.9,N/A,,Clear,260,2013-06-18 01:56:00
7:56 PM,88.0,33.1,14,29.74,10.0,West,10.4,-,N/A,,Clear,270,2013-06-18 02:56:00
8:56 PM,84.0,30.0,14,29.75,10.0,SSW,6.9,-,N/A,,Clear,200,2013-06-18 03:56:00
9:56 PM,81.0,32.0,17,29.75,10.0,South,9.2,-,N/A,,Clear,180,2013-06-18 04:56:00
10:56 PM,80.1,36.0,20,29.77,10.0,South,6.9,-,N/A,,Clear,170,2013-06-18 05:56:00
11:56 PM,78.1,37.9,24,29.76,10.0,South,9.2,-,N/A,,Clear,180,2013-06-18 06:56:00